ADT,Max TemperatureF,Mean TemperatureF,Min TemperatureF,Max Dew PointF,MeanDew PointF,Min DewpointF,Max Humidity, Mean Humidity, Min Humidity, Max Sea Level PressureIn, Mean Sea Level PressureIn, Min Sea Level PressureIn, Max VisibilityMiles, Mean VisibilityMiles, Min VisibilityMiles, Max Wind SpeedMPH, Mean Wind SpeedMPH, Max Gust SpeedMPH,PrecipitationIn, CloudCover, Events, WindDirDegrees
2013-8-1,80,70,61,64,60,55,88,69,40,30.04,30.01,29.99,15,15,15,12,8,17,0.00,4,,214
2013-8-2,73,66,58,64,61,58,94,79,58,29.99,29.90,29.80,15,15,12,15,6,,0.02,6,Rain,179
2013-8-3,77,68,60,64,62,59,100,84,55,29.80,29.75,29.68,15,14,2,23,9,34,0.12,6,Fog-Rain-Thunderstorm,220
2013-8-4,75,67,59,61,59,57,100,78,46,29.75,29.70,29.67,15,14,8,12,8,,0.00,2,,226
2013-8-5,74,64,55,63,59,55,100,85,64,29.79,29.72,29.68,15,14,12,12,6,18,0.47,5,Fog-Rain-Thunderstorm,259
2013-8-6,74,65,56,59,56,53,100,78,46,30.11,29.94,29.79,15,15,6,13,7,20,0.01,5,Rain,251
2013-8-7,78,68,57,61,56,52,94,69,33,30.19,30.16,30.12,15,15,15,14,7,,0.00,1,,216
2013-8-8,76,65,54,59,56,52,100,69,47,30.18,30.15,30.12,15,15,15,13,6,,0.00,5,Rain,204
2013-8-9,72,68,64,68,65,55,100,90,68,30.12,30.06,29.97,15,12,2,17,12,28,0.59,8,Rain-Thunderstorm,187
2013-8-10,78,72,64,67,64,50,100,82,50,29.94,29.71,29.64,15,12,2,21,16,29,0.31,6,Rain,211
2013-8-11,73,65,57,57,52,46,82,61,30,29.88,29.83,29.78,15,15,15,20,11,29,0.00,1,,260
2013-8-12,76,67,58,59,56,54,88,69,47,29.92,29.89,29.87,15,15,15,17,9,21,0.00,2,,234
2013-8-13,77,68,60,63,59,54,88,74,58,29.91,29.88,29.80,15,15,15,18,9,22,0.01,5,Rain,196
2013-8-14,76,69,62,68,64,61,100,88,69,29.79,29.65,29.55,15,12,2,13,7,24,0.20,7,Rain,161
2013-8-15,72,64,57,61,54,48,94,71,43,30.00,29.77,29.60,15,14,7,18,12,28,0.00,2,,250
2013-8-16,76,68,59,61,57,55,94,73,41,30.18,30.10,30.01,15,15,15,13,8,20,0.00,3,,210
2013-8-17,72,66,59,63,57,54,94,78,56,30.21,30.19,30.17,15,15,15,12,7,,0.00,2,,266
2013-8-18,76,65,54,59,55,50,94,69,38,30.22,30.13,30.00,15,15,15,17,8,23,0.00,2,,237
2013-8-19,78,70,60,63,60,55,94,75,46,29.97,29.81,29.72,15,15,15,20,11,28,0.00,2,Rain,259
2013-8-20,72,63,54,63,59,54,100,85,65,30.11,29.99,29.82,15,15,15,12,5,17,0.00,5,Fog,58
2013-8-21,82,70,57,66,62,55,94,75,47,30.10,30.04,29.96,15,15,15,18,9,24,0.00,4,,192
2013-8-22,83,76,68,64,62,61,78,66,42,29.96,29.85,29.78,15,15,15,21,13,31,0.00,3,,222
2013-8-23,69,64,53,66,60,52,94,84,72,30.03,29.80,29.67,15,13,2,15,10,25,0.08,7,Rain,296
2013-8-24,64,56,46,54,49,45,100,72,49,30.26,30.16,30.03,15,15,15,15,6,22,0.00,2,,325
2013-8-25,75,59,43,60,51,43,100,73,34,30.28,30.23,30.17,15,15,15,9,4,,0.00,1,,184
2013-8-26,72,64,55,62,57,54,89,77,44,30.16,29.98,29.86,15,15,15,14,9,20,0.04,7,Rain,201
2013-8-27,75,68,62,66,63,61,94,88,69,29.91,29.85,29.82,15,15,10,10,9,17,0.00,7,,220
2013-8-28,74,67,60,66,63,59,100,90,61,30.08,29.94,29.89,15,10,1,17,4,24,0.00,6,Fog,25
2013-8-29,64,60,57,59,57,54,94,86,77,30.13,30.08,29.94,15,14,10,21,15,29,0.00,8,Rain,40
2013-8-30,60,56,53,59,55,50,100,89,77,29.92,29.74,29.68,15,11,2,23,17,34,0.16,7,Rain,348
2013-8-31,73,62,51,61,56,50,100,78,55,29.91,29.82,29.69,15,15,15,10,5,,0.02,4,Rain,198